Date,TemperatureHighF,TemperatureAvgF,TemperatureLowF,DewpointHighF,DewpointAvgF,DewpointLowF,HumidityHigh,HumidityAvg,HumidityLow,PressureMaxIn,PressureMinIn,WindSpeedMaxMPH,WindSpeedAvgMPH,GustSpeedMaxMPH,PrecipitationSumIn
2014-1-1,51.4,46.9,41.5,48.6,44.5,38.5,94,91,85,29.18,28.61,0,0,0,0.47
2014-1-2,53.2,47.1,41.5,47.0,43.3,39.5,95,87,70,29.04,28.64,0,0,0,0.20
2014-1-3,50.2,46.6,43.5,48.5,41.8,35.5,94,83,69,29.12,28.84,1,0,1,0.17
2014-1-4,48.9,44.5,36.9,46.2,41.7,35.1,94,90,80,29.12,28.73,0,0,0,0.38
2014-1-5,52.9,42.3,34.3,51.5,39.9,32.2,95,91,85,29.23,28.89,0,0,0,0.11
2014-1-6,54.5,51.5,46.2,52.1,46.3,43.2,96,83,71,29.08,28.87,0,0,0,0.24
2014-1-7,51.1,51.1,51.1,44.8,44.5,44.2,79,78,77,29.09,29.08,0,0,0,0.00
2014-1-16,51.6,46.6,42.4,46.2,43.0,40.2,94,88,75,28.87,28.71,0,0,0,0.35
2014-1-17,49.8,44.2,41.5,44.3,41.8,39.6,95,91,78,28.94,28.71,0,0,0,0.38
2014-1-18,53.4,47.2,45.0,46.0,43.3,41.0,95,87,74,28.94,28.78,0,0,0,0.02
2014-1-19,54.3,44.3,37.8,43.1,38.9,34.0,93,82,54,29.18,28.81,0,0,0,0.03
2014-1-20,60.6,40.0,32.7,48.7,36.8,30.6,94,88,64,29.47,29.18,0,0,0,0.00
2014-1-21,51.4,41.1,34.3,42.5,37.5,32.0,95,87,70,29.48,29.28,0,0,0,0.02
2014-1-22,53.1,45.6,42.4,46.2,42.5,39.6,95,89,74,29.47,29.20,0,0,0,0.20
2014-1-23,50.4,41.1,36.0,43.4,36.3,32.6,96,84,60,29.59,29.41,0,0,0,0.02
2014-1-24,48.7,42.6,34.9,42.5,38.2,31.1,93,85,74,29.59,29.47,0,0,0,0.14
2014-1-25,55.4,46.7,39.6,47.8,41.8,32.5,96,84,61,29.58,29.32,0,0,0,0.04
2014-1-26,48.6,41.4,35.8,47.0,37.2,32.6,94,85,76,29.60,28.81,0,0,0,0.17
2014-1-27,48.4,39.8,34.9,38.7,35.3,30.9,90,84,67,28.91,28.72,0,0,0,5.06
2014-1-28,49.5,42.8,39.4,42.8,39.0,36.4,91,87,73,28.77,28.60,0,0,0,0.06
2014-1-29,41.9,39.2,37.2,39.3,37.2,35.4,94,92,90,29.09,28.76,0,0,0,0.45
2014-1-30,46.0,39.6,34.9,41.4,37.4,33.3,94,92,83,29.27,29.08,57,0,57,0.04
2014-1-31,47.8,40.6,32.9,46.2,38.7,31.4,96,93,85,29.28,28.64,0,0,0,0.22
2014-2-1,50.2,44.3,39.4,47.2,38.4,32.7,95,80,59,29.02,28.57,0,0,0,0.19
2014-2-2,55.8,45.2,40.8,39.2,37.5,34.7,90,75,48,29.44,29.02,0,0,0,0.06
2014-2-3,51.8,43.2,38.5,41.1,37.8,35.2,93,82,59,29.42,29.01,0,0,0,0.00
2014-2-4,43.3,43.3,43.2,38.7,38.5,38.5,84,83,83,29.01,29.00,0,0,0,0.00
2014-2-5,48.9,47.6,45.3,44.6,40.0,37.2,87,75,70,28.83,28.45,0,0,0,0.31
2014-2-6,48.7,45.5,41.7,47.0,41.4,36.9,95,85,74,29.00,28.50,57,0,111,0.16
2014-2-7,54.1,45.9,37.9,47.3,40.2,33.7,95,81,49,29.01,28.41,0,0,0,0.14
2014-2-8,48.7,45.3,43.0,45.0,39.9,33.8,93,81,66,28.70,28.38,111,1,111,0.29
2014-2-9,53.6,44.1,39.0,38.2,34.4,29.0,85,69,44,28.84,28.45,100,0,111,0.00
2014-2-10,54.3,42.5,35.4,47.1,37.8,32.2,92,84,66,29.14,28.78,111,2,111,0.06
2014-2-11,52.5,41.4,35.6,42.6,35.2,30.6,91,80,49,29.17,28.77,0,0,0,0.10
2014-2-12,48.7,42.4,35.8,43.8,36.6,31.1,92,80,68,29.21,28.66,57,0,107,0.23
2014-2-13,52.0,41.6,37.2,37.5,33.1,30.6,83,72,48,29.12,28.77,0,0,0,0.00
2014-2-14,52.3,44.0,37.2,49.1,39.8,31.9,95,85,70,29.13,28.36,111,2,111,7.87
2014-2-15,52.2,46.5,39.7,41.8,38.7,36.1,88,74,62,29.18,28.43,0,0,0,0.04
2014-2-16,56.8,41.7,34.3,38.1,35.1,32.0,94,79,46,29.39,29.18,0,0,0,0.00
2014-2-18,45.5,42.6,40.1,41.5,39.9,38.0,93,90,85,29.42,29.36,0,0,0,0.07
2014-2-19,52.7,45.5,39.4,46.1,42.3,37.5,94,89,75,29.51,29.37,0,0,0,0.00
2014-2-20,61.2,49.4,41.2,50.1,45.1,37.1,94,86,52,29.37,29.05,0,0,0,0.08
2014-2-21,55.9,44.0,36.1,38.2,35.7,32.2,90,74,45,29.26,29.14,0,0,0,0.00
2014-2-22,62.6,46.3,39.4,40.5,37.5,35.5,87,73,40,29.50,29.23,0,0,0,0.00
2014-2-23,54.9,50.2,46.2,45.9,43.7,39.8,87,79,69,29.47,29.37,0,0,0,0.00
2014-2-24,59.5,50.7,45.1,46.1,43.6,40.5,86,77,59,29.37,29.12,0,0,0,0.02
2014-2-25,55.0,47.3,41.7,45.2,41.3,37.4,90,80,59,29.31,29.05,0,0,0,0.12
2014-2-26,60.1,45.5,38.8,41.0,37.3,33.1,91,75,41,29.61,29.30,0,0,0,0.00
2014-2-27,57.0,45.1,37.2,43.1,37.9,33.4,93,77,47,29.54,29.21,0,0,0,0.06
2014-2-28,51.6,42.0,37.2,42.1,37.9,33.8,93,86,65,29.22,28.90,0,0,0,0.25
2014-3-1,63.3,42.0,33.4,42.9,35.1,30.1,95,79,39,29.22,29.13,0,0,0,0.00
2014-3-2,54.5,44.7,36.3,44.9,40.1,32.7,93,84,65,29.15,28.56,0,0,0,0.32
2014-3-3,63.0,42.8,36.0,47.1,39.0,34.2,94,87,54,29.00,28.55,0,0,0,0.27
2014-3-4,53.2,42.3,32.5,42.4,37.0,30.7,95,82,62,29.47,29.00,0,0,0,0.00
2014-3-5,64.8,45.2,31.8,42.3,36.4,29.3,93,74,42,29.87,29.46,0,0,0,9.20
2014-3-6,63.0,48.4,40.6,45.3,41.3,37.0,94,78,49,29.89,29.77,0,0,0,0.00
2014-3-7,70.9,51.2,42.6,51.1,43.5,39.0,89,76,43,29.98,29.70,0,0,0,0.00
2014-3-8,69.6,53.2,44.4,46.4,41.2,35.8,90,67,35,29.98,29.75,0,0,0,0.00
2014-3-9,76.5,56.1,46.0,45.8,40.6,36.4,78,58,28,29.83,29.74,0,0,0,0.00
2014-3-10,57.9,48.1,39.0,46.5,40.2,35.5,90,74,62,30.10,29.80,0,0,0,0.00
2014-3-11,60.4,47.0,40.3,46.5,40.7,37.0,88,79,60,30.15,30.07,0,0,0,0.00
2014-3-12,71.2,47.6,34.3,46.7,39.6,31.7,93,76,39,30.14,30.00,0,0,0,0.00
2014-3-13,80.8,52.7,39.0,48.1,41.7,36.3,94,71,25,30.04,29.96,0,0,0,0.00
2014-3-14,73.4,50.6,36.5,46.3,40.4,33.6,92,71,31,30.03,29.84,0,0,0,0.00
2014-3-15,71.4,52.8,43.7,44.0,41.1,37.2,86,67,31,29.98,29.86,0,0,0,0.00
2014-3-16,75.9,55.7,44.1,46.3,42.0,38.2,90,64,31,29.88,29.76,0,0,0,0.00
2014-3-17,69.8,51.3,41.5,48.2,42.2,39.1,94,73,43,29.82,29.68,0,0,0,0.00
2014-3-18,59.7,50.7,44.1,46.7,41.7,39.0,84,72,52,29.77,29.53,0,0,0,0.00
2014-3-19,71.4,51.5,42.6,45.1,41.1,38.4,88,70,37,29.84,29.67,0,0,0,0.00
2014-3-20,59.7,51.0,41.7,47.1,43.9,38.7,92,78,53,29.68,29.24,0,0,0,0.08
2014-3-21,61.9,49.0,43.3,42.6,38.2,33.2,91,69,38,29.36,29.07,0,0,0,0.04
2014-3-22,64.6,45.1,37.4,40.4,35.5,29.9,92,72,31,29.18,29.04,0,0,0,0.14
2014-3-23,58.8,43.6,34.0,39.1,33.3,28.5,91,69,39,29.55,29.18,0,0,0,9.48
2014-3-24,60.4,46.6,31.1,40.6,33.7,27.9,91,63,38,29.58,29.36,0,0,0,0.00
2014-3-25,49.1,44.0,39.0,42.6,38.5,33.8,91,81,68,29.60,29.28,0,0,0,0.15
2014-3-26,55.9,41.0,34.9,40.1,34.5,32.0,93,79,43,29.70,29.55,0,0,0,0.14
2014-3-27,55.8,45.2,36.5,41.7,36.7,30.7,93,73,46,29.51,29.44,0,0,0,0.02
2014-3-28,60.1,49.5,36.9,43.8,38.2,31.5,93,68,38,29.59,29.50,0,0,0,0.00
2014-3-29,77.7,56.5,44.8,44.8,40.1,33.2,88,59,24,29.57,29.48,0,0,0,0.00
2014-3-30,73.4,57.6,42.1,48.3,41.2,37.6,88,58,31,29.52,29.47,0,0,0,0.00
2014-3-31,67.8,57.8,50.7,48.7,45.2,41.5,77,64,47,29.53,29.44,0,0,0,0.00
2014-4-1,63.1,50.9,43.3,47.9,45.2,40.8,93,82,49,29.48,29.34,57,2,57,0.00
2014-4-2,68.4,57.2,49.8,52.7,48.3,44.3,85,73,56,29.34,29.12,0,0,0,0.00
2014-4-3,70.7,58.4,50.2,53.7,49.4,46.3,89,73,51,29.17,29.06,0,0,0,0.00
2014-4-4,65.5,56.1,46.4,49.7,46.0,41.3,88,70,49,29.48,29.17,0,0,0,0.00
2014-4-5,64.2,53.3,41.2,51.9,46.7,37.6,93,79,59,29.54,29.47,0,0,0,0.00
2014-4-6,61.3,56.0,53.8,54.3,52.5,51.4,94,88,76,29.53,29.47,111,2,111,0.12
2014-4-7,60.4,54.7,44.4,54.8,51.0,41.4,92,87,79,29.52,29.23,0,0,0,0.08
2014-4-8,63.7,49.9,41.5,41.7,37.4,33.5,90,65,37,29.90,29.41,0,0,0,0.02
2014-4-9,76.3,53.1,38.8,46.2,41.2,36.3,94,67,33,29.93,29.83,0,0,0,0.00
2014-4-10,78.6,54.9,41.7,46.8,41.1,38.3,89,63,29,29.85,29.71,0,0,0,0.00
2014-4-11,71.1,55.2,46.2,41.2,38.8,35.4,72,55,32,29.79,29.71,0,0,0,10.01
2014-4-12,63.0,52.4,42.4,43.2,39.6,36.4,81,64,44,29.75,29.63,0,0,0,0.00
2014-5-1,65.5,54.8,50.7,55.2,50.8,48.8,93,87,66,29.56,29.39,111,11,111,0.13
2014-5-2,58.8,50.5,42.1,48.8,43.6,35.0,93,78,60,30.00,29.56,106,0,106,0.00
2014-5-3,78.1,52.7,33.6,41.7,34.6,30.1,92,55,24,30.02,29.90,0,0,0,0.00
2014-5-4,79.5,55.9,39.4,44.6,39.5,34.0,84,57,28,29.93,29.68,0,0,0,0.00
2014-5-5,75.0,58.4,39.6,47.4,41.4,35.8,91,57,29,29.69,29.29,0,0,0,0.00
2014-5-6,76.3,60.7,51.6,53.3,45.8,40.0,87,61,31,29.33,29.25,0,0,0,0.00
2014-5-7,72.7,57.4,50.9,51.8,45.4,40.7,83,65,43,29.47,29.31,0,0,0,0.02
2014-5-8,63.1,55.1,51.6,56.5,49.4,42.5,91,81,67,29.48,29.24,0,0,0,0.16
2014-5-9,72.0,59.3,51.6,49.5,43.6,38.2,89,59,31,29.54,29.37,0,0,0,0.00
2014-5-10,66.7,55.4,50.0,56.8,47.7,40.9,93,76,50,29.51,29.12,57,0,57,0.16
2014-5-11,66.2,53.5,48.4,43.9,40.7,35.5,78,63,38,29.36,29.13,0,0,0,0.00
2014-5-12,64.2,50.6,46.0,45.4,42.7,39.0,88,75,44,29.53,29.35,57,0,57,0.12
2014-5-13,74.7,53.6,44.8,53.5,45.7,42.2,92,76,41,29.92,29.53,0,0,0,0.09
2014-5-14,67.5,48.0,42.6,49.4,43.7,40.2,95,86,39,30.06,29.91,57,1,57,0.00
2014-5-15,45.7,45.0,44.6,42.1,41.0,40.4,87,86,85,30.19,30.18,106,66,106,0.00
2014-5-21,57.0,56.3,55.0,49.3,49.1,48.8,81,77,75,29.15,29.14,0,0,7,0.00
2014-5-22,76.3,60.8,52.5,57.9,51.2,47.1,94,72,40,29.19,29.08,0,0,0,0.49
2014-5-23,74.8,58.6,52.5,55.6,47.2,43.4,82,67,39,29.37,29.18,0,0,0,0.02
2014-5-24,72.5,57.4,50.9,55.4,48.2,43.3,92,73,46,29.51,29.34,2,0,2,0.42
2014-5-25,54.9,49.7,46.9,49.5,45.9,43.5,91,87,82,29.61,29.51,7,0,57,0.00
2014-5-26,55.9,52.3,49.3,51.5,48.8,44.1,94,88,79,29.73,29.61,57,1,57,0.43
2014-5-27,56.3,52.5,48.6,52.1,50.1,47.0,95,92,82,29.62,29.51,86,8,86,0.31
2014-5-28,59.5,53.5,47.8,55.9,51.1,46.4,96,92,83,29.53,29.44,14,0,14,0.10
2014-5-29,79.3,61.1,53.8,56.7,53.1,50.9,95,77,43,29.70,29.48,0,0,0,0.00
2014-5-30,66.4,58.3,49.6,52.3,49.0,43.1,86,72,51,29.89,29.70,0,0,0,0.00
2014-5-31,77.4,59.1,43.5,54.1,45.4,40.5,94,65,34,29.90,29.84,108,2,108,0.00
2014-6-1,75.9,62.7,50.5,55.0,49.2,46.6,92,66,38,29.82,29.77,111,14,111,0.00
2014-6-2,60.6,57.2,55.9,53.4,51.6,50.1,84,82,75,29.70,29.68,21,0,21,0.00
2014-7-5,66.0,62.7,59.5,57.3,56.1,54.7,84,79,73,29.24,29.21,0,0,0,14.01
2014-7-6,84.6,64.9,55.0,55.0,51.1,45.4,90,65,29,29.44,29.19,0,0,0,0.00
2014-7-7,80.6,65.2,50.4,57.1,50.4,45.8,86,61,37,29.59,29.44,0,0,0,0.02
2014-7-8,81.1,61.8,51.1,57.8,51.8,47.7,93,72,39,29.61,29.52,0,0,0,0.06
2014-7-9,80.4,64.6,51.8,54.1,51.1,46.5,94,65,33,29.69,29.58,0,0,0,0.00
2014-7-10,78.6,63.5,56.8,58.2,52.3,48.4,80,67,49,29.67,29.60,0,0,0,0.00
2014-7-11,70.3,60.8,52.3,59.1,54.6,49.4,92,81,66,29.67,29.58,0,0,0,0.04
2014-7-12,97.5,71.2,59.0,64.3,58.7,55.5,91,69,29,29.61,29.42,0,0,0,14.28
2014-7-13,84.2,69.1,58.1,67.0,58.2,46.0,92,70,46,29.45,29.29,0,0,0,0.06
2014-7-14,88.2,67.8,51.1,57.0,50.7,44.8,83,57,30,29.58,29.46,0,0,0,0.00
2014-7-15,96.8,73.8,62.4,60.3,56.4,52.5,86,59,26,29.72,29.57,0,0,0,0.00
2014-7-16,89.2,72.8,55.9,60.9,56.1,50.9,86,59,35,29.75,29.69,0,0,0,0.00
2014-7-17,98.1,76.7,62.4,64.2,60.1,57.6,88,60,30,29.76,29.60,0,0,0,0.00
2014-7-18,102.9,78.7,62.6,68.6,62.2,57.9,92,62,26,29.63,29.43,57,0,61,0.30
2014-7-19,98.2,75.9,65.1,68.9,62.5,57.3,87,66,32,29.45,29.30,3,0,7,0.04
2014-7-20,87.8,71.5,62.4,64.3,61.4,58.3,92,73,41,29.52,29.33,0,0,0,0.00
2014-7-21,89.4,72.3,59.5,63.8,59.4,55.2,90,66,41,29.73,29.52,0,0,0,0.00
2014-7-22,94.3,74.3,58.8,62.3,58.5,54.6,89,60,35,29.80,29.72,0,0,0,0.04
2014-7-23,92.3,74.1,58.8,65.4,58.8,55.0,88,62,35,29.79,29.62,0,0,0,0.00
2014-7-25,83.3,69.8,64.6,68.3,62.7,58.2,89,79,48,29.62,29.56,111,2,111,0.29
2014-7-26,102.0,76.7,62.1,62.3,58.2,54.1,90,57,25,29.61,29.56,0,0,0,0.00
2014-7-27,95.2,72.9,63.1,60.4,54.1,48.5,80,54,27,29.64,29.55,0,0,0,0.04
2014-7-28,89.4,67.4,61.5,57.7,53.4,50.0,74,62,32,29.60,29.51,0,0,0,0.00
2014-7-29,94.8,72.7,60.6,58.6,53.9,48.0,83,55,28,29.61,29.52,0,0,0,0.00
2014-7-30,95.0,72.4,56.8,56.6,52.5,49.2,78,52,27,29.61,29.54,0,0,0,15.05
2014-7-31,64.2,63.8,63.3,54.7,54.4,54.1,73,72,70,29.57,29.56,0,0,0,0.00